Regional Weather Roundup
Issued by NWS

Home | Current Version | Previous Version | Text Only | Print | Product List | Glossary On
Versions: 1 2 3 4 5 6 7 8 9 10 11 12 13 14 15 16 17 18 19 20 21 22 23 24 25 26 27 28 29 30 31 32 33 34 35 36 37 38 39 40 41 42 43 44 45 46 47 48
000
ASUS42 KFFC 061803
RWRGA
WEATHER ROUNDUP FOR GEORGIA
NATIONAL WEATHER SERVICE PEACHTREE CITY GA
200 PM EDT MON JUL 06 2015

NOTE: "FAIR" INDICATES FEW OR NO CLOUDS BELOW 12,000 FEET WITH NO
SIGNIFICANT WEATHER AND/OR OBSTRUCTIONS TO VISIBILITY.

* = USE WITH CAUTION. THE STATIONS MARKED WITH AN ASTERISK MAY NOT
REPORT WEATHER SUCH AS PRECIPITATION, FOG, OR THUNDER AND ARE NOT
QUALITY CONTROLLED BY NWS.

THE REMARK "TC" DENOTES TEMPERATURE READING IN DEGREES CELSIUS.

GAZ001>058-061900-
NORTH GEORGIA

CITY           SKY/WX    TMP DP  RH WIND       PRES   REMARKS
ATLANTA        PTSUNNY   82  68  62 SW3       30.16F
6HR MIN TEMP:  72; 6HR MAX TEMP:  82;

ATHENS         CLOUDY    86  69  56 VRB5      30.15F HX  90
6HR MIN TEMP:  72; 6HR MAX TEMP:  86;

CHAMBLEE       PTSUNNY   83  69  62 VRB3      30.16F HAZE
6HR MIN TEMP:  72; 6HR MAX TEMP:  84;

PEACHTREE CITY MOSUNNY   82  70  66 VRB5      30.17F
6HR MIN TEMP:  71; 6HR MAX TEMP:  82; 6HR PCP: TRACE;

ROME           MOSUNNY   85  70  60 VRB6      30.14F
6HR MIN TEMP:  69; 6HR MAX TEMP:  85;

WEST ATLANTA   MOSUNNY   83  69  62 CALM      30.15F
6HR MIN TEMP:  73; 6HR MAX TEMP:  84;

GAINESVILLE    PTSUNNY   82  67  60 W6        30.18F
6HR MIN TEMP:  71; 6HR MAX TEMP:  83;

CARTERSVILLE   MOSUNNY   84  69  60 CALM      30.16F
6HR MIN TEMP:  71; 6HR MAX TEMP:  84; 6HR PCP:  0.02;



CITY           SKY/WX    TMP DP  RH WIND       PRES   REMARKS
DALTON*        CLOUDY    79  70  73 CALM      30.16F
LAWRENCEVILLE* PTSUNNY   81  64  57 CALM      30.15F
KENNESAW*      PTSUNNY  N/A N/A N/A NW6       30.18F
BLAIRSVILLE*     N/A     80  43  27 N5        30.20F
$$

GAZ059>098-102>109-061900-
CENTRAL GEORGIA

CITY           SKY/WX    TMP DP  RH WIND       PRES   REMARKS
AUGUSTA-BUSH   MOSUNNY   85  70  60 SW9       30.12F
6HR MIN TEMP:  73; 6HR MAX TEMP:  87;

AUGUSTA-DANIEL PTSUNNY   84  69  60 W7        30.14F
6HR MIN TEMP:  73; 6HR MAX TEMP:  86;

COLUMBUS       PTSUNNY   79  69  71 W6        30.17F
6HR MIN TEMP:  71; 6HR MAX TEMP:  80;

MACON          PTSUNNY   84  71  65 S9        30.15F
6HR MIN TEMP:  73; 6HR MAX TEMP:  84; 6HR PCP: TRACE;



CITY           SKY/WX    TMP DP  RH WIND       PRES   REMARKS
LAGRANGE*      CLOUDY    83  77  81 W10       30.18F HX  91
SYLVANIA*      PTSUNNY   86  73  66 W5        30.15F HX  93
MILLEDGEVILLE* PTSUNNY   84  70  61 W3        30.15F
$$

GAZ099>101-110>166-061900-
SOUTH GEORGIA

CITY           SKY/WX    TMP DP  RH WIND       PRES   REMARKS
SAVANNAH       PTSUNNY   86  69  56 CALM      30.14F HX  90
6HR MIN TEMP:  71; 6HR MAX TEMP:  87;

VALDOSTA       PTSUNNY   86  70  58 VRB6      30.17F HX  90
6HR MIN TEMP:  73; 6HR MAX TEMP:  88;

ALMA           PTSUNNY   86  70  58 SW7       30.15F HX  90
6HR MIN TEMP:  71; 6HR MAX TEMP:  86;

ALBANY         PTSUNNY   85  68  56 W7        30.18F
BRUNSWICK      MOSUNNY   86  72  62 W5        30.16F HX  92


CITY           SKY/WX    TMP DP  RH WIND       PRES   REMARKS
BAINBRIDGE*    MOSUNNY   88  73  62 W12       30.18S HX  96
MOULTRIE*      MOSUNNY   82  70  65 W7G16     30.18F
VIDALIA*       PTSUNNY   86  68  54 SW10      30.15F
WAYCROSS*      MOSUNNY   91  72  54 W10       30.15F HX  98
DOUGLAS*       MOSUNNY   88  68  51 W9        30.17F HX  91
$$



USA.gov is the U.S. government's official web portal to all federal, state and local government web resources and services.